Location: Brno
(49.2000°N, 16.6330°E)
Time: 02:24:07
(UTC+02:00)

Vanguard 3 - Pass Details

Date: 01 August 2021
Orbit: 510 x 3260 km, 33.3° (Epoch: 19 September)

Event Time Altitude Azimuth Distance (km) Brightness Sun altitude
Rises 17:52:43 0° 216° (SW) 5,363 11.8 24.3°
Reaches altitude 10° 17:56:18 10° 207° (SSW) 4,723 11.5 23.7°
Maximum altitude 18:08:29 34° 150° (SSE) 4,032 10.6 21.7°
Drops below altitude 10° 18:24:25 10° 96° (E) 6,197 11.1 19.1°
Sets 18:29:58 0° 89° (E) 7,205 11.4 18.2°
